TimeCST,TemperatureF,Dew PointF,Humidity,Sea Level PressureIn,VisibilityMPH,Wind Direction,Wind SpeedMPH,Gust SpeedMPH,PrecipitationIn,Events,Conditions,WindDirDegrees,DateUTC
12:13 AM,12.2,6.8,79,30.58,5.0,North,15.0,-,N/A,Snow,Light Snow,10,2014-02-06 06:13:00
12:20 AM,12.2,6.8,79,30.59,3.0,North,18.4,-,N/A,Snow,Light Snow,360,2014-02-06 06:20:00
12:25 AM,10.4,5.0,79,30.59,2.5,North,17.3,-,N/A,Snow,Light Snow,10,2014-02-06 06:25:00
12:30 AM,10.4,6.8,85,30.58,2.5,North,18.4,-,N/A,Snow,Light Snow,360,2014-02-06 06:30:00
12:31 AM,10.4,6.8,85,30.59,2.5,North,19.6,-,N/A,Snow,Light Snow,10,2014-02-06 06:31:00
12:36 AM,10.4,5.0,79,30.59,3.0,North,18.4,-,N/A,Snow,Light Snow,10,2014-02-06 06:36:00
12:41 AM,10.4,5.0,79,30.59,4.0,North,16.1,-,N/A,Snow,Light Snow,360,2014-02-06 06:41:00
12:51 AM,10.4,5.0,79,30.60,5.0,North,17.3,-,N/A,Snow,Light Snow,10,2014-02-06 06:51:00
12:58 AM,10.6,5.0,78,30.66,4.0,North,15.0,-,0.00,Snow,Light Snow,10,2014-02-06 06:58:00
1:10 AM,10.4,5.0,79,30.59,3.0,NNE,15.0,-,N/A,Snow,Light Snow,20,2014-02-06 07:10:00
1:15 AM,10.4,5.0,79,30.58,3.0,NNE,15.0,-,N/A,Snow,Light Snow,20,2014-02-06 07:15:00
1:20 AM,10.4,6.8,85,30.58,2.5,NNE,13.8,-,N/A,Snow,Light Snow,20,2014-02-06 07:20:00
1:23 AM,10.4,6.8,85,30.58,2.5,North,15.0,-,N/A,Snow,Light Snow,10,2014-02-06 07:23:00
1:28 AM,10.4,6.8,85,30.58,3.0,North,13.8,-,N/A,Snow,Light Snow,10,2014-02-06 07:28:00
1:33 AM,10.4,6.8,85,30.59,3.0,NNE,15.0,-,N/A,Snow,Light Snow,20,2014-02-06 07:33:00
1:48 AM,10.4,6.8,85,30.58,5.0,NNE,15.0,-,N/A,Snow,Light Snow,20,2014-02-06 07:48:00
1:58 AM,10.2,5.7,82,30.66,5.0,NNE,18.4,-,0.00,Snow,Light Snow,20,2014-02-06 07:58:00
2:03 AM,10.4,5.0,79,30.59,5.0,North,17.3,-,N/A,Snow,Light Snow,10,2014-02-06 08:03:00
2:28 AM,10.4,5.0,79,30.58,5.0,NNE,13.8,-,N/A,Snow,Light Snow,20,2014-02-06 08:28:00
2:33 AM,10.4,5.0,79,30.59,5.0,North,12.7,-,N/A,Snow,Light Snow,10,2014-02-06 08:33:00
2:43 AM,10.4,5.0,79,30.58,6.0,NNE,16.1,-,N/A,Snow,Light Snow,20,2014-02-06 08:43:00
2:56 AM,10.4,5.0,79,30.59,7.0,North,15.0,-,N/A,Snow,Light Snow,10,2014-02-06 08:56:00
2:58 AM,9.9,4.6,79,30.66,7.0,North,15.0,-,0.00,Snow,Light Snow,10,2014-02-06 08:58:00
3:43 AM,10.4,3.2,73,30.58,10.0,NNE,15.0,-,N/A,Snow,Light Snow,20,2014-02-06 09:43:00
3:53 AM,10.4,5.0,79,30.58,9.0,North,16.1,-,N/A,Snow,Light Snow,10,2014-02-06 09:53:00
3:58 AM,9.5,4.3,79,30.66,10.0,North,15.0,-,0.00,Snow,Light Snow,10,2014-02-06 09:58:00
4:00 AM,8.6,5.0,85,30.58,9.0,North,15.0,-,N/A,Snow,Light Snow,10,2014-02-06 10:00:00
4:10 AM,8.6,5.0,85,30.56,7.0,NNE,16.1,-,N/A,Snow,Light Snow,20,2014-02-06 10:10:00
4:15 AM,8.6,5.0,85,30.56,6.0,NNE,13.8,-,N/A,Snow,Light Snow,20,2014-02-06 10:15:00
4:30 AM,8.6,5.0,85,30.56,7.0,NNE,15.0,-,N/A,Snow,Light Snow,20,2014-02-06 10:30:00
4:35 AM,8.6,5.0,85,30.56,7.0,NNE,12.7,-,N/A,Snow,Light Snow,20,2014-02-06 10:35:00
4:40 AM,8.6,5.0,85,30.56,8.0,NNE,13.8,-,N/A,Snow,Light Snow,20,2014-02-06 10:40:00
4:58 AM,9.0,4.1,81,30.65,7.0,NNE,17.3,21.9,0.00,Snow,Light Snow,30,2014-02-06 10:58:00
5:03 AM,8.6,3.2,79,30.56,8.0,NE,15.0,-,N/A,Snow,Light Snow,40,2014-02-06 11:03:00
5:23 AM,8.6,3.2,79,30.56,6.0,NNE,16.1,-,N/A,Snow,Light Snow,30,2014-02-06 11:23:00
5:27 AM,8.6,3.2,79,30.56,5.0,NNE,16.1,-,N/A,Snow,Light Snow,30,2014-02-06 11:27:00
5:32 AM,8.6,3.2,79,30.56,6.0,NNE,15.0,-,N/A,Snow,Light Snow,30,2014-02-06 11:32:00
5:58 AM,8.8,3.4,79,30.65,7.0,NNE,16.1,-,0.00,Snow,Light Snow,30,2014-02-06 11:58:00
6:23 AM,8.6,3.2,79,30.57,4.0,NNE,13.8,-,N/A,Snow,Light Snow,20,2014-02-06 12:23:00
6:33 AM,8.6,3.2,79,30.57,5.0,NNE,12.7,-,N/A,Snow,Light Snow,20,2014-02-06 12:33:00
6:48 AM,8.6,3.2,79,30.57,8.0,North,15.0,-,N/A,Snow,Light Snow,10,2014-02-06 12:48:00
6:53 AM,8.6,3.2,79,30.57,8.0,North,12.7,-,N/A,Snow,Light Snow,10,2014-02-06 12:53:00
6:58 AM,8.4,3.6,81,30.65,7.0,NNE,13.8,-,0.00,Snow,Light Snow,20,2014-02-06 12:58:00
7:03 AM,8.6,3.2,79,30.57,7.0,NNE,13.8,-,N/A,Snow,Light Snow,30,2014-02-06 13:03:00
7:13 AM,8.6,3.2,79,30.57,8.0,NNE,15.0,-,N/A,Snow,Light Snow,20,2014-02-06 13:13:00
7:48 AM,8.6,3.2,79,30.58,9.0,North,12.7,-,N/A,Snow,Light Snow,10,2014-02-06 13:48:00
7:52 AM,8.6,3.2,79,30.58,10.0,NNE,12.7,-,N/A,Snow,Light Snow,20,2014-02-06 13:52:00
7:56 AM,8.6,3.2,79,30.58,10.0,NNE,15.0,-,N/A,Snow,Light Snow,20,2014-02-06 13:56:00
7:58 AM,8.2,3.0,79,30.66,10.0,NNE,15.0,-,0.00,Snow,Light Snow,30,2014-02-06 13:58:00
8:03 AM,8.6,3.2,79,30.58,10.0,NNE,15.0,-,N/A,Snow,Light Snow,20,2014-02-06 14:03:00
8:08 AM,8.6,3.2,79,30.58,10.0,NNE,10.4,-,N/A,Snow,Light Snow,20,2014-02-06 14:08:00
8:23 AM,8.6,3.2,79,30.58,10.0,NNE,15.0,-,N/A,,Overcast,30,2014-02-06 14:23:00
8:24 AM,8.6,3.2,79,30.58,10.0,NNE,15.0,-,N/A,,Overcast,30,2014-02-06 14:24:00
8:36 AM,8.6,3.2,79,30.58,10.0,NNE,13.8,-,N/A,,Overcast,20,2014-02-06 14:36:00
8:43 AM,8.6,3.2,79,30.58,10.0,NNE,12.7,-,N/A,,Overcast,30,2014-02-06 14:43:00
8:58 AM,9.0,2.3,74,30.67,10.0,NNE,13.8,-,0.00,,Overcast,20,2014-02-06 14:58:00
9:52 AM,10.4,3.2,73,30.59,10.0,NNE,13.8,-,N/A,,Overcast,20,2014-02-06 15:52:00
9:58 AM,9.7,2.8,74,30.67,10.0,NNE,12.7,-,N/A,,Overcast,30,2014-02-06 15:58:00
10:58 AM,10.4,3.0,72,30.66,10.0,NE,12.7,-,0.00,,Overcast,40,2014-02-06 16:58:00
11:03 AM,10.4,3.2,73,30.58,10.0,NNE,12.7,-,N/A,,Overcast,30,2014-02-06 17:03:00
11:24 AM,12.2,3.2,67,30.58,10.0,NNE,12.7,-,N/A,,Scattered Clouds,30,2014-02-06 17:24:00
11:58 AM,12.7,4.3,69,30.64,10.0,NNE,10.4,-,N/A,,Scattered Clouds,30,2014-02-06 17:58:00
12:34 PM,14.0,5.0,67,30.54,10.0,NNE,11.5,-,N/A,,Scattered Clouds,30,2014-02-06 18:34:00
12:58 PM,14.0,5.7,70,30.60,10.0,NE,10.4,-,N/A,,Scattered Clouds,40,2014-02-06 18:58:00
1:58 PM,15.8,6.8,68,30.54,10.0,NE,11.5,-,N/A,,Scattered Clouds,50,2014-02-06 19:58:00
2:58 PM,15.8,7.9,71,30.51,10.0,NNE,8.1,-,N/A,,Scattered Clouds,20,2014-02-06 20:58:00
3:58 PM,16.3,7.7,69,30.52,10.0,NNE,8.1,-,N/A,,Mostly Cloudy,20,2014-02-06 21:58:00
4:58 PM,16.2,8.6,72,30.50,10.0,NE,6.9,-,N/A,,Overcast,50,2014-02-06 22:58:00
5:58 PM,15.6,9.1,76,30.49,10.0,NNE,8.1,-,N/A,,Overcast,30,2014-02-06 23:58:00
6:58 PM,15.1,8.8,76,30.49,10.0,NNE,10.4,-,N/A,,Overcast,30,2014-02-07 00:58:00
7:58 PM,15.1,9.1,77,30.49,10.0,NE,11.5,-,N/A,,Overcast,40,2014-02-07 01:58:00
9:58 PM,14.7,9.3,79,30.49,10.0,NE,8.1,-,N/A,,Overcast,40,2014-02-07 03:58:00
10:03 PM,14.0,8.6,79,30.41,10.0,NE,8.1,-,N/A,,Overcast,40,2014-02-07 04:03:00
10:43 PM,15.8,10.4,79,30.40,10.0,ENE,8.1,-,N/A,,Overcast,60,2014-02-07 04:43:00
10:58 PM,15.1,10.0,80,30.45,10.0,NE,8.1,-,N/A,,Overcast,50,2014-02-07 04:58:00
11:58 PM,15.3,10.2,80,30.45,10.0,NNE,4.6,-,N/A,,Overcast,20,2014-02-07 05:58:00